Hourly Data Report for July 25, 2021

EUREKA CLIMATE
NUNAVUT
Current Station Operator: ECCC - MSC

79°59'21.000" N
85°56'02.000" W
10.00 m
2401199
71613
NEK

Download Data

Hourly Data (July 2021)
Hourly Data Report for July 25, 2021
TIME
LST
Temp Definition
°C
Dew Point Definition
°C
Rel Hum Definition
%
Precip. Amount Definition
mm

Wind Dir Definition
10's deg

Wind Spd Definition
km/h
Visibility Definition
km
Stn Press Definition
kPa
Hmdx Definition


Wind Chill Definition


Weather Definition


00:00 4.7 0.1 72 0.0 36 18   100.34     LegendNANA
01:00 4.4 0.2 74 0.0 35 18   100.35     LegendNANA
02:00 3.8 0.5 79 0.0 1 19   100.38     LegendNANA
03:00 3.0 0.5 84 0.0 29 9   100.42     LegendNANA
04:00 2.9 0.9 87 0.0 30 12   100.43     LegendNANA
05:00 2.7 1.3 90 0.0 30 15   100.45     LegendNANA
06:00 2.9 1.0 87 0.0 29 15   100.47     LegendNANA
07:00 2.7 0.9 88 0.0 30 15   100.48     LegendNANA
08:00 2.9 1.0 87 0.0 29 11   100.48     LegendNANA
09:00 3.4 0.7 83 0.0 29 11   100.49     LegendNANA
10:00 3.3 0.9 84 0.0 29 9   100.49     LegendNANA
11:00 3.1 1.0 86 0.0 29 12   100.47     LegendNANA
12:00 3.9 1.2 82 0.0 29 11   100.48     LegendNANA
13:00 3.8 1.1 83 0.0 29 7   100.47     LegendNANA
14:00 5.4 1.4 76 0.0 29 6   100.45     LegendNANA
15:00 5.7 1.7 75 0.0 29 5   100.46     LegendNANA
16:00 5.2 1.4 77 0.0 29 7   100.46     LegendNANA
17:00 5.0 1.5 78 0.0 29 10   100.47     LegendNANA
18:00 5.1 1.5 78 0.0 29 10   100.46     LegendNANA
19:00 5.6 1.6 76 0.0 30 7   100.45     LegendNANA
20:00 7.2 2.9 74 0.0 35 2   100.45     LegendNANA
21:00 7.5 2.9 72 0.0 0 1   100.45     LegendNANA
22:00 6.4 3.1 79 0.0 10 3   100.44     LegendNANA
23:00 8.7 1.9 63 0.0 12 12   100.43     LegendNANA

Notes on Data Quality.

Legend

  • E = Estimated
  • M = Missing
  • NA = Not Available*
  • [empty] = Indicates an unobserved value
Date modified: